[[{"header":{"parameterUnit":"m.s-1","parameterCategory":1,"la1":30.2991,"la2":30.254,"lo1":-89.0895,"lo2":-89.0444,"dy":0.0017,"dx":0.0017,"nx":28,"ny":28,"refTime":"2026-02-27T03:00:00:Z","depth":0,"parameterNumber":2,"parameterNumberName":"U-component_of_WINDS"},"data":[0,0,0,0,0,0,0,0,0,0,0,0,0,0,0,0,0,0,0,0,0,0,0,0,0,0,0,0,0,0,0,0,0,0,0,0,0,0,0,0,0,0,0,0,0,0,0,0,0,0,0,0,0,0,0,0,0,0,0.2691,0.2691,0,0.2687,0.2687,0.2687,0.2647,0.2646,0.2645,0.2644,0.2643,0.2643,0.2644,0,0,0,0,0,0,0,0,0,0,0,0,0,0.2669,0.267,0.2691,0.2691,0.2691,0.2687,0.2687,0.2687,0.2647,0.2646,0.2645,0.2644,0.2642,0.2643,0.2644,0,0,0,0,0,0,0,0,0,0,0,0,0,0.2673,0.267,0.2691,0.2671,0.2669,0.2687,0.2687,0.2687,0.2648,0.2646,0.2645,0.2643,0.2642,0.2643,0.2645,0.2683,0,0,0.2649,0.2649,0,0,0,0,0,0,0,0,0.2673,0.2674,0.2674,0.2672,0.267,0.2666,0.2679,0.2686,0.2648,0.2656,0.2644,0.2642,0.2652,0.2652,0.2655,0.2683,0.2683,0.2649,0.265,0.265,0.2651,0,0,0,0,0,0,0,0.2673,0.2674,0.269,0.2674,0.2672,0.2663,0.2662,0.268,0.2662,0.2655,0.2652,0.2652,0.2651,0.2654,0.2655,0.2683,0.2649,0.265,0.2651,0.2651,0.2746,0.2748,0,0,0,0,0,0,0.2675,0.2674,0.269,0.269,0.2668,0.2665,0.2664,0.2669,0.2662,0.2659,0.2653,0.265,0.2652,0.2653,0.2654,0.2701,0.265,0.2651,0.2652,0.2745,0.2747,0.2749,0,0,0,0,0,0,0.2675,0.2677,0.269,0.2681,0.2682,0.2667,0.2673,0.267,0.2673,0.2661,0.2658,0.2659,0.2651,0.2652,0.2677,0.2701,0.2652,0.2653,0.2743,0.2745,0.2748,0.2795,0,0,0,0,0,0,0.2674,0.2677,0.269,0.2682,0.2683,0.2711,0.2674,0.2671,0.2675,0.2671,0.2666,0.2663,0.265,0.2675,0.2678,0.2702,0.2654,0.2741,0.2744,0.2747,0.2791,0.2798,0.2805,0,0,0,0,0,0.2674,0.2703,0.2691,0.2693,0.2699,0.2713,0.2713,0.2696,0.2677,0.2691,0.2684,0.2664,0.2697,0.2678,0.2681,0.2705,0.2739,0.2743,0.2747,0.2788,0.2797,0.2805,0,0,0,0,0,0,0.2715,0.2701,0.2688,0.2715,0.2715,0.2706,0.2723,0.2706,0.2712,0.2708,0.2688,0.2687,0.2716,0.2713,0.2691,0.2744,0.2715,0.272,0.2745,0.2754,0.2761,0.2761,0.2655,0,0,0,0,0,0.2727,0.2738,0.2726,0.2752,0.2753,0.2738,0.2743,0.2731,0.273,0.273,0.2725,0.2726,0.2738,0.2745,0.2755,0.279,0.279,0.2809,0.2816,0.2822,0.2826,0.2848,0.2857,0.2761,0.2761,0.2761,0,0,0.2752,0.2746,0.2755,0.276,0.2758,0.2773,0.2738,0.2753,0.2764,0.2733,0.2756,0.2752,0.2753,0.2784,0.2797,0.2782,0.2853,0.2827,0.2831,0.2833,0.2853,0.2862,0.2871,0.2764,0.2764,0.2763,0,0,0.2806,0.2801,0.2824,0.2823,0.2822,0.2813,0.2818,0.2812,0.2808,0.2831,0.2809,0.2822,0.2841,0.2843,0.2847,0.2905,0.2888,0.2909,0.2946,0.2968,0.2976,0.2982,0.3006,0.3014,0.2914,0.2914,0.2914,0,0.2838,0.2856,0.2837,0.2855,0.286,0.2832,0.2856,0.2856,0.2859,0.2863,0.2846,0.2872,0.287,0.2903,0.2917,0.292,0.2928,0.291,0.2976,0.2982,0.2988,0.3011,0.3019,0.2916,0.2916,0.2916,0.2916,0,0.2897,0.2911,0.2929,0.2933,0.2939,0.296,0.2946,0.2955,0.2942,0.2935,0.2961,0.2958,0.2968,0.2975,0.2962,0.3007,0.2999,0.2979,0.2949,0.3,0.3021,0.3029,0.292,0.2919,0.2918,0.2918,0,0,0.2975,0.2969,0.2977,0.2979,0.2977,0.2988,0.3009,0.3019,0.3028,0.3031,0.305,0.3068,0.3051,0.3056,0.3044,0.3063,0.3113,0.3041,0.3041,0.3057,0.3166,0.3182,0.3192,0.3101,0.3103,0.3104,0.3167,0,0.3029,0.3063,0.3048,0.3085,0.3099,0.3074,0.3093,0.3095,0.309,0.3103,0.3098,0.3112,0.3087,0.309,0.3107,0.3103,0.3135,0.3098,0.3121,0.3122,0.3123,0.3202,0.3218,0.3277,0.3174,0.3176,0.3177,0,0.3095,0.3102,0.314,0.3139,0.3144,0.3161,0.317,0.3182,0.3185,0.318,0.3187,0.3172,0.3195,0.3165,0.3198,0.3173,0.3182,0.3182,0.3184,0.3186,0.3153,0.3209,0.3295,0.3305,0.3189,0.3188,0.3187,0,0.3151,0.317,0.3196,0.3199,0.3196,0.321,0.321,0.3211,0.3219,0.3228,0.3233,0.3245,0.3251,0.3262,0.3251,0.323,0.3287,0.3255,0.3286,0.3287,0.33,0.3299,0.3391,0.3303,0.3302,0.3302,0.3302,0,0.3213,0.3238,0.3222,0.3238,0.3266,0.325,0.3279,0.3276,0.3279,0.3296,0.3275,0.3292,0.3276,0.3292,0.3284,0.3315,0.3317,0.3316,0.3314,0.3319,0.3319,0.3325,0.3321,0.3305,0.3304,0.3304,0.3303,0,0.3281,0.327,0.3297,0.3294,0.3294,0.3315,0.3313,0.333,0.3324,0.3346,0.3351,0.3342,0.336,0.3351,0.3369,0.3364,0.3405,0.3396,0.3404,0.3402,0.3434,0.3432,0.3534,0.3548,0.3449,0.345,0.345,0,0.3322,0.334,0.334,0.335,0.3351,0.3367,0.3375,0.3361,0.3371,0.3378,0.3394,0.3411,0.3423,0.3454,0.3451,0.3466,0.3459,0.3494,0.3461,0.3467,0.3462,0.3462,0.3465,0.35,0.3502,0.3503,0.3503,0,0.3396,0.3391,0.3403,0.3415,0.3426,0.3434,0.3441,0.3451,0.3437,0.345,0.3468,0.3478,0.3498,0.3516,0.353,0.3532,0.3517,0.3514,0.3522,0.3528,0.3532,0.3533,0.3424,0.3511,0.3511,0.351,0.351,0.3509,0.3453,0.347,0.3473,0.3489,0.3493,0.35,0.3516,0.3513,0.3528,0.3543,0.3534,0.3557,0.3563,0.358,0.3585,0.3604,0.359,0.3602,0.3605,0.3608,0.3614,0.3528,0.3606,0.3606,0.3606,0.3605,0.3605,0,0.3529,0.353,0.3544,0.3555,0.3569,0.3552,0.356,0.3573,0.3593,0.3599,0.3613,0.3636,0.3654,0.3653,0.367,0.3686,0.368,0.3691,0.3691,0.3692,0.3624,0.3616,0.3696,0.3696,0.3696,0.3696,0.3696,0.3696,0.3569,0.3598,0.3594,0.3626,0.3627,0.3649,0.3655,0.3664,0.3669,0.3696,0.3711,0.371,0.3715,0.3733,0.375,0.3749,0.3758,0.3772,0.377,0.3706,0.3697,0.3688,0.3681,0.3774,0.3774,0.3837,0.3837,0.3838]},{"header":{"parameterUnit":"m.s-1","parameterCategory":1,"la1":30.2991,"la2":30.254,"lo1":-89.0895,"lo2":-89.0444,"dy":0.0017,"dx":0.0017,"nx":28,"ny":28,"refTime":"2026-02-27T03:00:00:Z","depth":0,"parameterNumber":3,"parameterNumberName":"V-component_of_WINDS"},"data":[0,0,0,0,0,0,0,0,0,0,0,0,0,0,0,0,0,0,0,0,0,0,0,0,0,0,0,0,0,0,0,0,0,0,0,0,0,0,0,0,0,0,0,0,0,0,0,0,0,0,0,0,0,0,0,0,0,0,0.2706,0.2707,0,0.2817,0.2819,0.282,0.2853,0.2853,0.2852,0.2852,0.2967,0.297,0.2974,0,0,0,0,0,0,0,0,0,0,0,0,0,0.2524,0.2527,0.2706,0.2707,0.2709,0.2817,0.2819,0.282,0.2853,0.2853,0.2852,0.2851,0.2966,0.297,0.2974,0,0,0,0,0,0,0,0,0,0,0,0,0,0.2616,0.2528,0.2706,0.2738,0.2742,0.2817,0.2819,0.2821,0.2853,0.2853,0.2852,0.2851,0.2964,0.297,0.2975,0.3026,0,0,0.2992,0.2994,0,0,0,0,0,0,0,0,0.261,0.2622,0.2732,0.2736,0.2741,0.282,0.2797,0.2889,0.2854,0.2811,0.2852,0.2851,0.2919,0.2928,0.2951,0.3031,0.3036,0.2992,0.2995,0.2998,0.2999,0,0,0,0,0,0,0,0.2604,0.2618,0.275,0.2734,0.2739,0.2748,0.276,0.2814,0.2869,0.2815,0.2818,0.283,0.2921,0.2946,0.2954,0.3038,0.2992,0.2997,0.3,0.3002,0.3166,0.3167,0,0,0,0,0,0,0.2592,0.2612,0.2746,0.2753,0.2672,0.2752,0.2765,0.2796,0.2868,0.2878,0.2831,0.2831,0.2937,0.2948,0.2958,0.3024,0.2998,0.3003,0.3006,0.3165,0.3166,0.3168,0,0,0,0,0,0,0.2588,0.2603,0.2742,0.2684,0.2702,0.2756,0.279,0.2798,0.2823,0.288,0.289,0.2846,0.2937,0.295,0.3009,0.3028,0.3005,0.301,0.3164,0.3165,0.3167,0.3154,0,0,0,0,0,0,0.2582,0.2602,0.2621,0.2684,0.2705,0.279,0.2791,0.2801,0.2832,0.2834,0.2897,0.2906,0.2937,0.3001,0.3014,0.3035,0.3014,0.3162,0.3165,0.3166,0.3153,0.3155,0.3156,0,0,0,0,0,0.2576,0.2613,0.2622,0.2638,0.273,0.2791,0.2804,0.2837,0.2833,0.2854,0.2891,0.2904,0.3023,0.3006,0.3022,0.3045,0.3161,0.3164,0.3166,0.3152,0.3154,0.3156,0,0,0,0,0,0,0.2552,0.2622,0.2633,0.2691,0.2735,0.2797,0.2824,0.2839,0.2885,0.2885,0.2925,0.2939,0.2995,0.3025,0.3005,0.3098,0.3093,0.3098,0.3076,0.3079,0.3081,0.3073,0.3019,0,0,0,0,0,0.2553,0.2597,0.2655,0.2701,0.2723,0.2769,0.2797,0.2819,0.2867,0.2886,0.2927,0.2973,0.3021,0.3051,0.3098,0.3157,0.3172,0.318,0.3182,0.3183,0.3188,0.3223,0.3227,0.3176,0.3176,0.3176,0,0,0.2557,0.26,0.2625,0.2698,0.2734,0.2779,0.2785,0.2832,0.2866,0.2893,0.2951,0.2983,0.3036,0.3095,0.3123,0.3122,0.3205,0.3186,0.3187,0.3191,0.3226,0.323,0.3235,0.3178,0.3177,0.3177,0,0,0.2587,0.2623,0.2667,0.2703,0.2758,0.2789,0.2799,0.2859,0.2881,0.2939,0.2961,0.3002,0.3083,0.3121,0.3151,0.3195,0.321,0.3209,0.322,0.3253,0.3257,0.3261,0.3278,0.3284,0.3214,0.3214,0.3214,0,0.2585,0.2653,0.2687,0.2733,0.2765,0.2791,0.2835,0.2869,0.2937,0.2959,0.2956,0.3059,0.3097,0.3166,0.3177,0.3199,0.3213,0.3203,0.3253,0.3258,0.3262,0.3279,0.3285,0.3213,0.3213,0.3213,0.3213,0,0.2648,0.2695,0.2723,0.2788,0.2822,0.2867,0.2909,0.294,0.2959,0.299,0.305,0.3096,0.3154,0.3171,0.319,0.3243,0.3241,0.3245,0.3241,0.3266,0.3283,0.3289,0.3213,0.3213,0.3213,0.3213,0,0,0.2668,0.275,0.276,0.2791,0.2853,0.289,0.2937,0.2992,0.3019,0.3065,0.3106,0.3173,0.3178,0.3212,0.3235,0.3264,0.3298,0.3265,0.3267,0.3271,0.3361,0.3359,0.3366,0.3308,0.3309,0.331,0.3357,0,0.2707,0.2791,0.2823,0.2891,0.2936,0.2961,0.3002,0.3045,0.3075,0.3117,0.3151,0.3199,0.32,0.3221,0.3251,0.3288,0.3317,0.3284,0.3347,0.3349,0.3335,0.3374,0.3372,0.3414,0.3364,0.3365,0.3366,0,0.2765,0.2811,0.2884,0.2942,0.2962,0.2997,0.3052,0.3091,0.3141,0.3161,0.3199,0.322,0.3271,0.3262,0.3333,0.331,0.3337,0.3359,0.3362,0.3371,0.336,0.3386,0.3428,0.3435,0.3376,0.3375,0.3374,0,0.2774,0.2854,0.2908,0.2933,0.3002,0.3026,0.3056,0.3105,0.3137,0.3184,0.3205,0.3258,0.3287,0.3327,0.3363,0.3353,0.3431,0.3425,0.345,0.3449,0.3467,0.3466,0.3516,0.3481,0.3481,0.3481,0.3481,0,0.2815,0.286,0.2913,0.2947,0.2998,0.3034,0.3083,0.3114,0.3158,0.3199,0.3223,0.3261,0.3305,0.3348,0.3376,0.3432,0.3444,0.3462,0.347,0.3462,0.3459,0.3482,0.348,0.3483,0.3482,0.3482,0.3481,0,0.2835,0.2872,0.2934,0.2993,0.3009,0.3044,0.3096,0.313,0.316,0.3212,0.3226,0.3275,0.3328,0.3367,0.3435,0.3454,0.3513,0.352,0.3497,0.3501,0.3525,0.3522,0.3593,0.3605,0.3559,0.356,0.356,0,0.286,0.2895,0.2958,0.2987,0.3016,0.3062,0.3095,0.3132,0.3165,0.3224,0.3251,0.3306,0.3352,0.3435,0.3477,0.3529,0.3539,0.3559,0.3547,0.3538,0.3541,0.354,0.3544,0.3562,0.3562,0.3562,0.3563,0,0.2901,0.2918,0.2964,0.3016,0.3054,0.3097,0.3141,0.3163,0.3208,0.3244,0.3298,0.3333,0.3403,0.3457,0.3514,0.3545,0.3562,0.3566,0.3575,0.3568,0.3554,0.3564,0.3504,0.3565,0.3564,0.3564,0.3564,0.3564,0.2926,0.2958,0.3008,0.3058,0.3094,0.3135,0.317,0.3205,0.3251,0.331,0.3329,0.3386,0.3435,0.3513,0.3545,0.359,0.359,0.3603,0.3606,0.3609,0.361,0.3545,0.36,0.36,0.36,0.36,0.36,0,0.297,0.3003,0.3049,0.3109,0.3149,0.3159,0.3208,0.3241,0.329,0.3335,0.3379,0.3442,0.3495,0.354,0.3595,0.3623,0.3632,0.3636,0.3636,0.3643,0.3606,0.3594,0.3628,0.3628,0.3628,0.3628,0.3628,0.3628,0.2998,0.3054,0.3076,0.3151,0.3184,0.3239,0.3266,0.3304,0.334,0.3408,0.3452,0.3481,0.3527,0.3585,0.3635,0.3647,0.3667,0.367,0.3684,0.3649,0.3645,0.3642,0.3631,0.3673,0.3673,0.3718,0.3718,0.3718]}]]